Погода в Понтианаке

Индонезия     0°01′57″N   109°19′32″E
темп.,
°C
ветер,
м/с
пор.,
м/с
влажн.,
%
обл.,
%
осадки,
мм/ч
давл.,
гПа
погр.,
м
2 марта, вт
вт201:00+25ссз248466 0.0 1011212
04:00+24ссв248889 0.0 1009172
07:00+25ссв228671 0.0 1011154
10:00+28зюз017185 0.0 1012332
13:00+31зсз546356 0.0 1009719
16:00+29зсз687616 0.4 1007556
19:00+26сз598740 0.9 1009454
22:00+26ссз3688100 0.1 1012305
3 марта, ср
ср301:00+25с3788100 1.6 1010359
04:00+25с3688100 0.0 1009334
07:00+26ссв238799 2.8 1012135
10:00+27в2380100 0.8 1012439
13:00+31зюз1262100 0.8 1009738
16:00+28зюз3477100 0.0 1007211
19:00+26сз348598 0.1 1009181
22:00+26ююз018688 0.4 101192
4 марта, чт
чт401:00+26ю118792 0.8 101170
04:00+25ююв239198 0.4 1010145
07:00+25вюв239299 0.4 1012176
10:00+30юв236470 0.0 1012912
13:00+29юз567960 3.2 1009581
16:00+28юз478589 7.7 1008309
19:00+26ююз369092 9.6 1009258
22:00+26зюз238977 6.4 1011135
5 марта, пт
пт501:00+25вюв128989 9.8 1010126
04:00+24всв1294100 0.3 101073
07:00+25юв1291100 0.5 101293
10:00+30вюв1267100 0.1 1013663
13:00+29зюз3479100 1.6 1009358
16:00+28з3480100 3.1 1008261
19:00+26сз3487100 3.9 1010214
22:00+25с1186100 0.3 1011115
6 марта, сб
сб601:00+25св1188100 0.3 101095
04:00+24всв2393100 0.0 100998
07:00+25в229197 0.0 1011135
10:00+29всв236999 0.0 1011614
13:00+32зсз225797 0.0 10081022
16:00+28зсз577949 0.7 1007410
19:00+27сз368642 1.0 1009251
22:00+26сз238793 0.6 1010115